Terminal Aerodrome Forecast
Issued by NWS

Current Version | Previous Version | Graphics & Text | Print | Product List | Glossary On
Versions: 1 2 3 4 5 6 7 8 9 10 11 12 13 14 15 16 17 18 19 20 21 22 23 24 25 26 27 28 29 30 31 32 33 34 35 36 37 38 39 40 41
000
FTUS41 KRNK 010923 AAA
TAFLWB
TAF AMD
KLWB 010923Z 0109/0206 00000KT 3SM BR SCT001
      TEMPO 0109/0111 3/4SM BR BKN001
     FM011400 27004KT P6SM BKN050
     FM012300 00000KT P6SM SCT040=

USA.gov is the U.S. government's official web portal to all federal, state and local government web resources and services.